User: anonymous   Login
Location: Kailua
(21.4020°N, 157.7390°W)
Time: 15:18:00
(UTC-10:00)
Language:

Cosmos 2221 Rocket - Orbit

View from above orbital plane
View from above orbital plane
View from above satellite
View from above satellite

Ground track
Ground track

The orbit data is extracted from the following two-line orbital elements,

1 22237U 92080B   16181.76111682  .00000083  00000-0  82649-5 0  9999
2 22237  82.5131  85.5561 0018221 278.8501 133.7287 14.78268286271376
Epoch (UTC): 29 June 2016 18:16:00
Eccentricity: 0.0018221
inclination: 82.5131°
perigee height: 622 km
apogee height: 647 km
right ascension of ascending node: 85.5561°
argument of perigee: 278.8501°
revolutions per day: 14.78268286
mean anomaly at epoch: 133.7287°
orbit number at epoch: 27137

The dashed part of the orbit path shows where the satellite is in the earth's shadow,  

DLR